Location: Albany
(35.0000°S, 118.0000°E)
Time: 17:35:14
(UTC-04:00)

SJ-6B - Visible Passes

Search period start: 28 March 2017 00:00
Search period end: 07 April 2017 00:00
Orbit: 511 x 585 km, 97.8° (Epoch: 27 March)

Date Brightness Start Highest point End Pass type
(mag) Time Alt. Az. Time Alt. Az. Time Alt. Az.
28 Mar 2.7 07:47:56 10° S 07:51:57 86° W 07:55:47 10° NNW visible
29 Mar 2.6 07:43:04 10° SSE 07:47:03 82° ENE 07:50:54 10° N visible
30 Mar 2.6 07:38:12 10° SSE 07:42:10 70° ENE 07:45:59 10° N visible
31 Mar 2.7 07:33:22 10° SSE 07:37:16 59° E 07:41:02 10° N visible
01 Apr 3.5 07:28:32 10° SSE 07:35:30 14° N 07:36:04 10° N visible
02 Apr 4.5 07:23:43 10° SSE 07:31:26 - N 07:24:57 18° SE visible
02 Apr 6.1 09:00:25 10° SW 09:00:32 10° SW 09:00:32 10° SW visible
03 Apr 5.2 07:18:55 10° SSE 07:27:03 - N 07:19:00 11° SSE visible
04 Apr5.607:22:32N07:22:32N07:13:14SSEvisible
04 Apr 6.1 17:56:48 10° E 17:58:55 14° ESE 18:01:03 10° SE visible
05 Apr5.907:17:57NNE07:17:57NNE07:07:32SSEvisible
05 Apr 6.2 17:52:29 10° E 17:54:06 12° ESE 17:55:42 10° SE visible
06 Apr 6.5 17:48:30 10° ESE 17:49:15 10° ESE 17:50:00 10° SE visible
